Weather History for Fort Polk, LA

Change the Weather History Date:

Saturday, June 22, 2013

  Actual Average (KPOE) Record (KPOE)
Temperature  
Mean Temperature 81 °F -  
Max Temperature 91 °F 86 °F 98 °F (1998)
Min Temperature 71 °F 69 °F 68 °F (2001)
Cooling Degree Days 16    
Growing Degree Days 31 (Base 50)    
Moisture  
Dew Point 71 °F    
Average Humidity 71    
Maximum Humidity 91    
Minimum Humidity 47    
Precipitation  
Precipitation 0.00 in - - ()
Sea Level Pressure  
Sea Level Pressure 30.09 in    
Wind  
Wind Speed 1 mph (North)    
Max Wind Speed 7 mph    
Max Gust Speed -    
Visibility 9 miles    
Events      
Averages and records for this station are not official NWS values.
T = Trace of Precipitation, MM = Missing Value Source: NWS Daily Summary

Daily Weather History Graph

Daily Weather History Graph

Search for Another Location

Airport:

Trip Planner

Search our weather history database for the weather conditions in past years. The results will help you decide how hot, cold, wet, or windy it might be!

Date:

Astronomy

Jun. 22, 2013 Rise Set
Actual Time 6:08 AM CDT 8:18 PM CDT
Civil Twilight 5:40 AM CDT 8:46 PM CDT
Nautical Twilight 5:06 AM CDT 9:20 PM CDT
Astronomical Twilight 4:30 AM CDT 9:57 PM CDT
Moon 7:37 PM CDT (6/22) 5:18 AM CDT (6/22)
Length of Visible Light 15h 05m
Length of Day
14h 09m
Waxing Gibbous, 99% of the Moon is Illuminated
Jun 22
Waxing Gibbous
Jun 23
Full
Jun 29
Last Quarter
Jul 8
New
Jul 15
First Quarter

Hourly Weather History & Observations

Time (CDT) Temp. Heat Index Dew Point Humidity Pressure Visibility Wind Dir Wind Speed Gust Speed Precip Events Conditions
12:54 AM 73.0 °F - 70.0 °F 90% 30.11 in 6.0 mi Calm Calm - N/A   Clear
1:54 AM 73.0 °F - 70.0 °F 90% 30.10 in 6.0 mi Calm Calm - N/A   Clear
2:54 AM 72.0 °F - 69.1 °F 91% 30.10 in 6.0 mi Calm Calm - N/A   Clear
3:54 AM 72.0 °F - 69.1 °F 91% 30.09 in 5.0 mi Calm Calm - N/A   Clear
4:54 AM 71.1 °F - 68.0 °F 90% 30.10 in 5.0 mi Calm Calm - N/A   Clear
5:54 AM 71.1 °F - 68.0 °F 90% 30.11 in 5.0 mi Calm Calm - N/A   Clear
6:54 AM 72.0 °F - 69.1 °F 91% 30.12 in 5.0 mi Calm Calm - N/A   Clear
7:54 AM 77.0 °F - 73.0 °F 88% 30.14 in 10.0 mi Calm Calm - N/A   Clear
8:54 AM 82.9 °F 89.4 °F 73.9 °F 74% 30.14 in 10.0 mi WNW 3.5 mph - N/A   Clear
9:54 AM 86.0 °F 93.8 °F 73.9 °F 67% 30.15 in 10.0 mi Calm Calm - N/A   Partly Cloudy
10:20 AM 86.0 °F 93.4 °F 73.4 °F 66% 30.07 in 10.0 mi Calm Calm - N/A   Mostly Cloudy
10:28 AM 84.2 °F 90.9 °F 73.4 °F 70% 30.07 in 10.0 mi Calm Calm - N/A   Scattered Clouds
10:54 AM 86.0 °F 93.0 °F 73.0 °F 65% 30.15 in 10.0 mi Calm Calm - N/A   Clear
11:20 AM 87.8 °F 95.6 °F 73.4 °F 62% 30.07 in 10.0 mi Calm Calm - N/A   Mostly Cloudy
11:31 AM 87.8 °F 93.8 °F 71.6 °F 58% 30.08 in 10.0 mi Calm Calm - N/A   Scattered Clouds
11:54 AM 88.0 °F 93.8 °F 71.1 °F 57% 30.15 in 10.0 mi Variable 3.5 mph - N/A   Scattered Clouds
12:54 PM 89.1 °F 96.0 °F 72.0 °F 57% 30.14 in 10.0 mi Variable 5.8 mph - N/A   Scattered Clouds
1:54 PM 90.0 °F 96.4 °F 71.1 °F 54% 30.12 in 10.0 mi East 6.9 mph - N/A   Partly Cloudy
2:54 PM 91.9 °F 96.9 °F 69.1 °F 47% 30.10 in 10.0 mi Variable 3.5 mph - N/A   Scattered Clouds
3:54 PM 91.9 °F 97.4 °F 70.0 °F 48% 30.08 in 10.0 mi Variable 3.5 mph - N/A   Partly Cloudy
4:54 PM 91.0 °F 97.6 °F 71.1 °F 52% 30.06 in 10.0 mi Calm Calm - N/A   Clear
5:54 PM 90.0 °F 96.9 °F 72.0 °F 55% 30.05 in 10.0 mi Calm Calm - N/A   Clear
6:54 PM 89.1 °F 94.1 °F 70.0 °F 53% 30.04 in 10.0 mi Variable 3.5 mph - N/A   Clear
7:54 PM 84.9 °F 91.4 °F 73.0 °F 67% 30.04 in 10.0 mi Calm Calm - N/A   Clear
8:54 PM 81.0 °F 85.2 °F 72.0 °F 74% 30.04 in 10.0 mi Calm Calm - N/A   Clear
9:54 PM 79.0 °F - 73.0 °F 82% 30.06 in 10.0 mi Calm Calm - N/A   Clear
10:54 PM 78.1 °F - 72.0 °F 81% 30.07 in 10.0 mi Calm Calm - N/A   Partly Cloudy
11:54 PM 78.1 °F - 73.0 °F 84% 30.08 in 9.0 mi Calm Calm - N/A   Clear